2023/03/10 00:00:00,23.9, 7.0
2023/03/10 00:10:00,24.0, 7.0
2023/03/10 00:20:00,24.0, 7.2
2023/03/10 00:30:00,23.7, 7.7
2023/03/10 00:40:00,23.8, 8.1
2023/03/10 00:50:00,24.2, 8.1
2023/03/10 01:00:00,24.0, 7.8
2023/03/10 01:10:00,24.0, 7.5
2023/03/10 01:20:00,23.7, 7.6
2023/03/10 01:30:00,23.5, 7.8
2023/03/10 01:40:00,23.4, 8.4
2023/03/10 01:50:00,23.5, 8.5
2023/03/10 02:00:00,23.6, 8.4
2023/03/10 02:10:00,23.5, 8.5
2023/03/10 02:20:00,23.5, 8.5
2023/03/10 02:30:00,23.3, 7.9
2023/03/10 02:40:00,23.2, 7.6
2023/03/10 02:50:00,23.2, 7.2
2023/03/10 03:00:00,23.2, 6.8
2023/03/10 03:10:00,23.4, 6.6
2023/03/10 03:20:00,23.3, 6.4
2023/03/10 03:30:00,23.2, 6.4
2023/03/10 03:40:00,23.3, 6.6
2023/03/10 03:50:00,23.1, 6.6
2023/03/10 04:00:00,23.4, 6.6
2023/03/10 04:10:00,22.9, 6.5
2023/03/10 04:20:00,23.0, 6.4
2023/03/10 04:30:00,22.9, 6.4
2023/03/10 04:40:00,22.7, 6.3
2023/03/10 04:50:00,22.6, 6.7
2023/03/10 05:00:00,22.5, 6.6
2023/03/10 05:10:00,22.5, 6.7
2023/03/10 05:20:00,22.5, 6.5
2023/03/10 05:30:00,22.3, 6.7
2023/03/10 05:40:00,22.2, 6.6
2023/03/10 05:50:00,22.0, 6.4
2023/03/10 06:00:00,22.0, 6.4
2023/03/10 06:10:00,21.8, 6.8
2023/03/10 06:20:00,21.7, 7.1
2023/03/10 06:30:00,21.7, 7.9
2023/03/10 06:40:00,21.5, 9.4
2023/03/10 06:50:00,21.5, 9.7
2023/03/10 07:00:00,21.4, 9.9
2023/03/10 07:10:00,21.2,10.3
2023/03/10 07:20:00,21.0,10.5
2023/03/10 07:30:00,21.1,10.4
2023/03/10 07:40:00,21.3,10.6
2023/03/10 07:50:00,21.2,10.1
2023/03/10 08:00:00,20.8,10.0
2023/03/10 08:10:00,20.5,10.2
2023/03/10 08:20:00,19.9,10.1
2023/03/10 08:30:00,19.9,10.1
2023/03/10 08:40:00,19.9,10.1
2023/03/10 08:50:00,19.9,10.1
2023/03/10 09:00:00,19.6,10.2
2023/03/10 09:10:00,19.5, 9.5
2023/03/10 09:20:00,19.4, 9.5
2023/03/10 09:30:00,19.4, 9.4
2023/03/10 09:40:00,19.5, 9.1
2023/03/10 09:50:00,19.4, 9.7
2023/03/10 10:00:00,19.6,10.3
2023/03/10 10:10:00,19.7,10.6
2023/03/10 10:20:00,19.7,11.4
2023/03/10 10:30:00,19.6,12.2
2023/03/10 10:40:00,19.6,12.8
2023/03/10 10:50:00,20.1,15.0
2023/03/10 11:00:00,19.9,14.2
2023/03/10 11:10:00,19.4,15.4
2023/03/10 11:20:00,19.2,16.2
2023/03/10 11:30:00,19.9,17.7
2023/03/10 11:40:00,20.1,16.2
2023/03/10 11:50:00,19.9,17.1
2023/03/10 12:00:00,19.3,17.6
2023/03/10 12:10:00,19.4,16.3
2023/03/10 12:20:00,19.3,17.3
2023/03/10 12:30:00,19.0,18.8
2023/03/10 12:40:00,18.9,19.1
2023/03/10 12:50:00,18.7,20.9
2023/03/10 13:00:00,18.4,20.1
2023/03/10 13:10:00,18.3,21.7
2023/03/10 13:20:00,17.8,20.8
2023/03/10 13:30:00,17.6,21.3
2023/03/10 13:40:00,17.5,21.2
2023/03/10 13:50:00,16.9,20.3
2023/03/10 14:00:00,17.1,23.6
2023/03/10 14:10:00,16.9,21.6
2023/03/10 14:20:00,16.5,21.6
2023/03/10 14:30:00,16.0,20.2
2023/03/10 14:40:00,15.7,22.2
2023/03/10 14:50:00,15.5,23.2
2023/03/10 15:00:00,15.3,24.5
2023/03/10 15:10:00,15.0,23.1
2023/03/10 15:20:00,14.9,23.7
2023/03/10 15:30:00,14.8,21.6
2023/03/10 15:40:00,14.7,21.6
2023/03/10 15:50:00,14.6,20.6
2023/03/10 16:00:00,14.4,20.5
2023/03/10 16:10:00,14.3,21.2
2023/03/10 16:20:00,14.2,22.0
2023/03/10 16:30:00,14.0,19.7
2023/03/10 16:40:00,14.0,19.2
2023/03/10 16:50:00,14.0,18.8
2023/03/10 17:00:00,13.9,18.5
2023/03/10 17:10:00,13.8,15.2
2023/03/10 17:20:00,13.7,12.7
2023/03/10 17:30:00,13.7,10.9
2023/03/10 17:40:00,13.5, 9.5
2023/03/10 17:50:00,13.5, 8.4
2023/03/10 18:00:00,13.5, 7.7
2023/03/10 18:10:00,13.5, 7.0
2023/03/10 18:20:00,13.5, 6.7
2023/03/10 18:30:00,13.5, 6.0
2023/03/10 18:40:00,13.5, 5.8
2023/03/10 18:50:00,13.5, 5.5
2023/03/10 19:00:00,13.6, 5.3
2023/03/10 19:10:00,13.6, 4.9
2023/03/10 19:20:00,13.6, 4.4
2023/03/10 19:30:00,13.6, 4.5
2023/03/10 19:40:00,13.5, 4.3
2023/03/10 19:50:00,13.6, 4.0
2023/03/10 20:00:00,13.6, 3.8
2023/03/10 20:10:00,13.5, 3.8
2023/03/10 20:20:00,13.5, 3.5
2023/03/10 20:30:00,13.5, 3.4
2023/03/10 20:40:00,13.5, 3.3
2023/03/10 20:50:00,13.5, 3.2
2023/03/10 21:00:00,13.5, 3.1
2023/03/10 21:10:00,13.5, 3.2
2023/03/10 21:20:00,13.5, 3.0
2023/03/10 21:30:00,13.5, 2.9
2023/03/10 21:40:00,13.6, 3.0
2023/03/10 21:50:00,13.5, 2.8
2023/03/10 22:00:00,13.6, 2.8
2023/03/10 22:10:00,13.6, 3.0
2023/03/10 22:20:00,13.6, 2.8
2023/03/10 22:30:00,13.6, 2.6
2023/03/10 22:40:00,13.6, 2.5
2023/03/10 22:50:00,13.7, 2.3
2023/03/10 23:00:00,13.6, 2.5
2023/03/10 23:10:00,13.6, 2.3
2023/03/10 23:20:00,13.6, 2.7
2023/03/10 23:30:00,13.6, 2.2
2023/03/10 23:40:00,13.7, 2.2
2023/03/10 23:50:00,13.6, 2.6
